Regional Weather Roundup
Issued by NWS Charleston, SC

Current Version | Previous Version | Graphics & Text | Print | Product List | Glossary On
Versions: 1 2 3 4 5 6 7 8 9 10 11 12 13 14 15 16 17 18 19 20 21 22 23 24 25 26 27 28 29 30 31 32 33 34 35 36 37 38 39 40 41 42 43 44 45 46 47 48 49 50
000 ASUS42 KCHS 271211 RWRCHS REGIONAL WEATHER ROUNDUP NATIONAL WEATHER SERVICE CHARLESTON SC 700 AM EST FRI FEB 27 2015 NOTE: "FAIR" INDICATES FEW OR NO CLOUDS BELOW 12,000 FEET WITH NO SIGNIFICANT WEATHER AND/OR OBSTRUCTIONS TO VISIBILITY. NOT ALL STATIONS ARE QUALITY CONTROLLED BY THE NATIONAL WEATHER SERVICE. USE DATA WITH CAUTION...ESPECIALLY DEWPOINT OBSERVATIONS. SCZ027-030-031-034>040-042>050-271300- ...SOUTHEAST SOUTH CAROLINA... CITY SKY/WX TMP DP RH WIND PRES REMARKS N CHARLESTON MOCLDY 36 33 89 N7 30.29R WCI 30 6HR MIN TEMP: 35; 6HR MAX TEMP: 39; WATERFRONT PRK N/A 39 N/A N/A N9 N/A WCI 33 MOUNT PLEASANT LGT RAIN 36 34 93 N3 30.29R PINOPOLIS N/A 37 34 87 NE9 30.19R WCI 31 MONCKS CORNER FAIR 36 32 87 NE5 30.29R WCI 32 SUMMERVILLE FAIR 34 34 100 CALM 30.29 BEAUFORT MCAS CLOUDY 38 35 89 NE9 30.28R WCI 31 6HR MIN TEMP: 37; 6HR MAX TEMP: 40; BEAUFORT ARPT FAIR 39 37 93 CALM 30.27R HILTON HEAD IS CLOUDY 39 36 87 N9 30.27 WCI 33 WALTERBORO CLOUDY 36 36 100 CALM 30.29R ALLENDALE FAIR 37 36 93 N3 30.28R ...SOUTHERN MIDLANDS AND PEE DEE... CITY SKY/WX TMP DP RH WIND PRES REMARKS GEORGETOWN NOT AVBL KINGSTREE NOT AVBL ORANGEBURG MOCLDY 32 30 92 CALM 30.28R FOG 6HR MIN TEMP: 32; 6HR MAX TEMP: 36; BARNWELL PTSUNNY 36 36 100 CALM 30.29R AIKEN CLOUDY 37 37 100 CALM 30.29R MANNING FAIR N/A N/A N/A CALM 30.29R HAZE COLUMBIA CLOUDY 36 34 92 S3 30.28R FOG 6HR MIN TEMP: 34; 6HR MAX TEMP: 39; SUMTER PTCLDY 30 28 93 CALM 30.27R 6HR MIN TEMP: 30; 6HR MAX TEMP: 34; FLORENCE MOCLDY 31 28 89 CALM 30.30R 6HR MIN TEMP: 30; 6HR MAX TEMP: 34; MYRTLE BEACH CLEAR 34 30 86 N5 30.31R WCI 30 N MYRTLE BEACH MOCLDY 32 30 92 CALM 30.29R FOG 6HR MIN TEMP: 32; 6HR MAX TEMP: 36; $$ GAZ063-065-086>088-099>101-113>116-118-119-134>141-150-271300- ...SOUTHEAST GEORGIA... CITY SKY/WX TMP DP RH WIND PRES REMARKS SAVANNAH ARPT CLOUDY 38 34 85 N5 30.27R WCI 34 6HR MIN TEMP: 38; 6HR MAX TEMP: 43; HUNTER AAF CLOUDY 40 36 86 N5 30.24R WCI 36 6HR MIN TEMP: 40; 6HR MAX TEMP: 43; FORT STEWART CLOUDY 39 37 93 N3 30.24R 6HR MIN TEMP: 39; 6HR MAX TEMP: 40; STATESBORO MOCLDY 38 38 100 CALM 30.28R SYLVANIA PTSUNNY 37 37 100 CALM 30.28R CLAXTON FAIR 37 37 100 CALM 30.27R FOG ...CSRA...CENTRAL AND FAR SOUTHEAST GEORGIA... CITY SKY/WX TMP DP RH WIND PRES REMARKS THOMSON CLOUDY 39 39 100 CALM 30.32R AUGUSTA-BUSH CLOUDY 40 37 89 CALM 30.28R 6HR MIN TEMP: 40; 6HR MAX TEMP: 42; AUGUSTA-DANIEL CLOUDY 42 37 82 SE3 30.28R SWAINSBORO PTSUNNY 37 37 100 CALM 30.28R VIDALIA CLOUDY 41 37 87 N5 30.26R EASTMAN FAIR 36 36 100 CALM 30.30R HAZLEHURST CLOUDY 42 40 91 N3 30.25R ALMA CLOUDY 42 39 89 N5 30.25R 6HR MIN TEMP: 42; 6HR MAX TEMP: 44; WAYCROSS CLOUDY 47 44 88 NE5 30.25R JESUP FAIR 45 41 87 CALM 30.26R BAXLEY FAIR 43 41 93 N5 30.25R BRUNSWICK CLOUDY 43 37 81 N5 30.25R SAINT SIMONS CLOUDY 44 38 79 N7 30.24R 6HR MIN TEMP: 44; 6HR MAX TEMP: 46; $$ SCZ027-028-034-036>038-045-046-048>050-GAZ119-141-271300- ...LAKE AND SUPPLEMENTAL COASTAL OBSERVATIONS... STATION/POSITION TIME TEMP WIND PRES WAVE SWELL AIR SEA DIR/SP/G HT/PER HT/PER/DIR (UTC) (F) (DEG/KT/KT) (MB) (FT/S) (FT/S/D) UPR LAKE MARION NOT AVBL WINYAH BAY NOT AVBL LAKE MURRAY 1100 38 CALM / 2 1023.7R ACE BASIN NERRS NOT AVBL FORT PULASKI 1112 42 49 10/ 7/ 10 1024.4R SAPELO ISLAND 1100 42 20/ 7 1023.0S $$ ANZ835-935-AMZ111-154-330-350-352-354-370-450-454-472-271300- ...C-MAN AND BUOY OBSERVATIONS... STATION/POSITION TIME TEMP WIND PRES WAVE SWELL AIR SEA DIR/SP/G HT/PER HT/PER/DIR (UTC) (F) (DEG/KT/KT) (MB) (FT/S) (FT/S/D) BUOY 41004 1150 46 65 20/ 16/ 19 1023.5R 5/10 3/10 BUOY 41008 1150 46 52 30/ 17/ 21 1023.0R 4/10 2/ 90/10 FOLLY BEACH CMAN 1100 39 20/ 8/ 10 1024.8R CAPERS NEARSHORE NOT AVBL FRIPP NEARSHORE 1100 42 40/ 14/ 17 1023.2R STATION/POSITION TIME TEMP WIND PRES WAVE SWELL AIR SEA DIR/SP/G HT/PER HT/PER/DIR (UTC) (F) (DEG/KT/KT) (MB) (FT/S) (FT/S/D) 5E ST. MARYS GA 1121 53 N/A 4/ 5 FRYING PAN BUOY 1150 43 60 20/ 16/ 17 1024.9R 5/ 9 5/160/ 9 BUOY 41025 NOT AVBL CAPE LOOKOUT NC 1100 34 360/ 9/ 12 1024.3R BUOY 41002 1150 62 70 340/ 12/ 16 1020.6R 8/ 8 8/200/ 8 BUOY 41010 1120 67 74 40/ 14/ 17 1018.5R ST AUGUSTINE FL 1200 50 10/ 23/ 25 1022.7R $$

USA.gov is the U.S. government's official web portal to all federal, state and local government web resources and services.